Regional Weather Roundup
Issued by NWS

Home | Current Version | Previous Version | Text Only | Print | Product List | Glossary Off
Versions: 1 2 3 4 5 6 7 8 9 10 11 12 13 14 15 16 17 18 19 20 21 22 23 24 25 26 27 28 29 30 31 32 33 34 35 36 37 38 39 40 41 42 43 44 45 46 47 48 49 50

000
ASUS43 KDMX 280607
RWRIA

WEATHER ROUNDUP FOR IOWA
NATIONAL WEATHER SERVICE DES MOINES IA
100 AM CDT THU AUG 28 2014

NOTE: "FAIR" INDICATES FEW OR NO CLOUDS BELOW 12,000 FEET WITH NO
SIGNIFICANT WEATHER AND/OR OBSTRUCTIONS TO VISIBILITY.

* - THESE STATIONS ARE NOT NWS STATIONS...THUS NOT UNDER NWS
QUALITY CONTROL.  THEY ALSO DO NOT REPORT WEATHER SUCH
AS PRECIPITATION OR FOG.

IAZ001>003-012>014-020>022-031>034-043>046-280700-
   NORTHWEST IOWA

CITY           SKY/WX    TMP DP  RH WIND       PRES   REMARKS
CARROLL *      CLOUDY    68  68 100 E5        30.09F FOG
DENISON *      CLOUDY    68  68 100 SE5       30.07S FOG
LE MARS *      DRIZZLE   68  68 100 VRB5      30.07S
ORANGE CITY *  CLOUDY    70  66  88 E6        30.07F
SHELDON *      MOCLDY    66  66 100 SE6       30.07F
SIOUX CITY     MOCLDY    69  67  93 E6        30.05F
6HR MIN TEMP:  69; 6HR MAX TEMP:  72;

SPENCER          N/A     66  63  90 E6        30.09F
6HR MIN TEMP:  66; 6HR MAX TEMP:  72;

STORM LAKE *   CLOUDY    66  66 100 SE8       30.10R
$$

IAZ055>058-069>071-079>083-090>094-280700-
   SOUTHWEST IOWA

CITY           SKY/WX    TMP DP  RH WIND       PRES   REMARKS
ATLANTIC *     CLOUDY    70  68  94 NE5       30.07S
AUDUBON *      MOCLDY    72  68  88 CALM      30.09F FOG
CLARINDA *     CLOUDY    72  70  94 E5        30.05F
COUNCIL BLFS * CLOUDY    70  70 100 E9        30.04F
CRESTON *      MOCLDY    70  70 100 NE5       30.09S FOG
HARLAN  *      LGT RAIN  68  68 100 VRB5      30.11F
LAMONI           N/A     72  69  90 E3        30.07F
6HR MIN TEMP:  71; 6HR MAX TEMP:  75; 6HR PCP: TRACE;

RED OAK *      CLOUDY    72  70  94 NE5       30.06S
SHENANDOAH *   CLOUDY    72  70  94 E6        30.04F
$$

IAZ047>049-059>061-072>074-084-280700-
   CENTRAL IOWA

CITY           SKY/WX    TMP DP  RH WIND       PRES   REMARKS
AMES           CLOUDY    68  65  90 SE3       30.10S
6HR MIN TEMP:  67; 6HR MAX TEMP:  73; 6HR PCP: TRACE;

ANKENY *       CLOUDY    70  66  88 SE5       30.09R
CHARITON *     CLOUDY    70  68  94 E5        30.09R
DES MOINES       N/A     71  67  87 E5        30.09R
6HR MIN TEMP:  71; 6HR MAX TEMP:  75;

GRINNELL*      CLOUDY    66  64  94 E5        30.11S
KNOXVILLE *    MOCLDY    70  66  88 E6        30.07F
MARSHALLTOWN   CLOUDY    66  64  93 E5        30.10F
6HR MIN TEMP:  66; 6HR MAX TEMP:  72;

PELLA *          N/A     70  65  85 E5        30.09F
PERRY *        CLOUDY    70  68  94 CALM      30.09S
$$

IAZ004>006-015-016-023>025-035-036-280700-
   NORTH CENTRAL IOWA

CITY           SKY/WX    TMP DP  RH WIND       PRES   REMARKS
ALGONA *       CLOUDY    68  63  83 E6        30.12S
CLARION *      CLOUDY    66  63  88 E6        30.12R
ESTHERVILLE    MOCLDY    63  61  93 SE6       30.11S
6HR MIN TEMP:  63; 6HR MAX TEMP:  70;

FORT DODGE *   CLOUDY    66  63  88 E8        30.10F
MASON CITY       N/A     63  62  97 E5        30.14F
6HR MIN TEMP:  62; 6HR MAX TEMP:  72;

FOREST CITY *  PTCLDY    63  63 100 E5        30.13S
IOWA FALLS *   CLOUDY    66  62  87 CALM      30.13R
$$

IAZ007>011-017>019-026>030-037>042-050>054-066-280700-
   NORTHEAST IOWA

CITY           SKY/WX    TMP DP  RH WIND       PRES   REMARKS
CEDAR RAPIDS   CLOUDY    66  62  87 E6        30.11S
6HR MIN TEMP:  66; 6HR MAX TEMP:  73;

CHARLES CITY * CLEAR     63  59  88 E5        30.15R
CLINTON *        N/A     63  61  94 E7        30.14S
DECORAH *      CLEAR     61  59  94 CALM      30.15S
DUBUQUE        CLOUDY    64  62  93 NE5       30.14F
6HR MIN TEMP:  64; 6HR MAX TEMP:  72;

MONTICELLO *   PTCLDY    63  63 100 CALM      30.12F
OELWEIN *      CLEAR     61  61 100 NE5       30.14S
WATERLOO       CLOUDY    63  60  90 NE3       30.11F
6HR MIN TEMP:  62; 6HR MAX TEMP:  73;

$$

IAZ064-065-067-068-078-280700-
   EAST CENTRAL IOWA

CITY           SKY/WX    TMP DP  RH WIND       PRES   REMARKS
DAVENPORT        N/A     64  61  90 NE7       30.12S
6HR MIN TEMP:  62; 6HR MAX TEMP:  73;

IOWA CITY      CLOUDY    69  63  81 NE3       30.12S
6HR MIN TEMP:  66; 6HR MAX TEMP:  74;

MT. PLEASANT *   N/A     68  65  92 NE5       30.09F
MUSCATINE *    CLEAR     66  63  88 CALM      30.11R
QUAD CITIES      N/A     64  61  90 CALM      30.11S
6HR MIN TEMP:  64; 6HR MAX TEMP:  76;

$$

IAZ062-063-075>077-085>089-095>099-280700-
   SOUTHEAST IOWA

CITY           SKY/WX    TMP DP  RH WIND       PRES   REMARKS
BURLINGTON       N/A     70  65  84 NE6       30.08F
6HR MIN TEMP:  70; 6HR MAX TEMP:  77;

FAIRFIELD *    CLOUDY    68  64  88 NE6       30.09F
FORT MADISON * PTCLDY    70  68  94 CALM      30.09S
KEOKUK *       CLOUDY    72  68  88 NE6       30.07S
OSKALOOSA *      N/A     68  66  94 E6        30.09F
CENTERVILLE *  CLEAR     68  68 100 E5        30.10S
OTTUMWA          N/A     69  67  93 E6        30.09S
6HR MIN TEMP:  69; 6HR MAX TEMP:  73;

WASHINGTON *   MOCLDY    68  66  94 NE5       30.10F
$$

ABBREVIATIONS USED IN REMARKS
   TC - TEMPERATURES IN CELSIUS
  WCI - WIND CHILL INDEX
   HX - HEAT INDEX
  VSB - VISIBILITY
$$



USA.gov is the U.S. government's official web portal to all federal, state and local government web resources and services.